Torna al catalogo

SL-14 DEB

AttivoPO
NORAD 39985·DEBRIS·🇷🇺 Russia

Lanciato Aug 18, 1987 da Plesetsk Cosmodrome

Loading…

Prossimi Passaggi (prossime 24 ore)

TLE

AggiornatoSource: Space-Track

Epoca: Sep 13, 2026, 14:28 UTC

1 39985U 87068DM  26256.60344367  .00001255  00000-0  66106-3 0  9992
2 39985  82.5216   8.3795 0006208 316.0550  44.0132 14.13327624610934

Traccia SL-14 DEB in tempo reale con AllMySat

Download on the App Store